Location: Palomar Mountain Lodge
(33.3110°N, 116.8495°W)
Time: 06:17:38
(UTC-07:00)

Okean 1 - Pass Details

Date: 19 May 2017
Orbit: 540 x 559 km, 82.5° (Epoch: 28 May)

Event Time Altitude Azimuth Distance (km) Brightness Sun altitude
Exits shadow 20:41:27 - 167° (SSE) 1,961 5.7 -11.4°
Reaches altitude 10° 20:41:52 10° 166° (SSE) 1,795 5.5 -11.5°
Maximum altitude 20:45:39 45° 93° (E) 740 3.6 -12.1°
Drops below altitude 10° 20:49:26 10° 20° (NNE) 1,802 6.1 -12.8°
Sets 20:51:39 0° 14° (NNE) 2,697 7.1 -13.1°
